Zarya

operational
NORAD ID: 25544 Int'l Des: 1998-067 Owner: JSC Country: US
LEOCIRCULAR

Zaryaについて

説明を読み込み中...

リアルタイム位置

3D地球を読み込み中...

次回通過

高度履歴

Altitude vs Time

uPlot chart will show altitude changes over time

軌道要素

1 25544U 98067A 25308.93822298 .00010846 00000-0 19941-3 0 9997
2 25544 51.6335 329.6155 0005046 18.0946 342.0222 15.49755997536997
Epoch: Nov 4, 2025 • Age: 12 hours

現在のステータス

高度 414.2 km
速度 7.67 km/s
衛星直下点 18.90°N, 132.71°E
打ち上げ日 Nov 20, 1998
運用期間 26.9 years
タイプ other

技術仕様

分類 Payload
質量 20281.00 kg
乾燥質量 19000.00 kg
総質量 20351.00 kg
長さ 12.60 m
直径 4.20 m
スパン 23.90 m
形状 Cyl + 2 Pan
製造者 KHRR
バスタイプ 77KS
フェーズステータス Grappled
所有者/国 JSC/US

大規模コンステレーション

Loading constellations...